Wind_Speed
9 10 11 11 10 10 9 9 9 8 8 7 7 6 6 6 5 5 5 5 5 6 6 6 6 5 5 5 4 4 4 4 4 4 5 5 5 6 6 7 7 7 7
10 11 12 13 12 11 10 10 9 8 7 7 6 6 5 5 4 4 4 4 4 4 4 5 5 4 4 4 4 4 4 4 4 5 5 5 6 6 7 7 7 7 7
11 11 13 14 13 13 12 11 10 9 8 7 6 6 5 4 3 3 3 3 3 3 3 4 4 4 4 4 4 4 4 4 4 5 5 5 6 6 7 7 7 6 6
11 13 14 14 14 14 13 12 11 10 8 7 6 5 4 3 3 2 3 3 3 2 3 3 3 3 3 3 3 3 3 4 4 5 5 5 6 7 7 7 7 6 6
12 13 15 16 16 15 14 13 12 11 9 8 6 5 4 3 2 2 2 2 2 2 2 2 2 2 2 2 3 3 3 4 4 5 5 5 6 7 7 7 7 6 6
13 13 15 17 17 16 15 14 13 12 10 9 7 5 4 3 2 1 1 2 2 2 1 1 1 1 1 2 2 3 4 4 5 5 5 5 6 7 7 7 7 7 7
13 13 15 17 17 17 16 15 14 13 11 9 7 6 4 3 2 1 1 1 1 1 1 1 1 1 1 2 2 3 4 5 5 6 6 6 7 8 8 8 8 7 7
13 15 15 17 18 17 17 16 15 13 12 10 8 6 5 3 2 1 0 1 1 1 1 1 0 1 1 2 3 3 4 5 6 6 7 7 7 9 9 9 8 8 7
13 16 17 17 17 18 17 16 16 14 13 10 8 7 5 4 3 1 1 1 1 1 1 1 1 1 2 2 3 4 4 5 6 7 7 8 8 9 10 10 9 9 8
12 15 17 17 18 18 18 17 16 15 13 11 9 7 6 4 3 2 2 2 2 1 1 2 1 1 2 2 3 4 5 6 6 7 7 8 9 10 10 11 11 10 9
12 14 16 17 18 19 18 17 16 15 14 12 10 8 6 5 3 2 2 2 2 2 2 2 2 2 2 3 3 4 5 6 7 7 8 8 9 10 11 11 11 11 10
13 14 15 17 19 20 19 17 17 16 14 12 10 8 7 5 4 3 3 2 2 2 2 2 2 2 2 3 4 4 5 6 7 8 8 9 9 10 11 12 12 12 11
12 14 16 17 18 20 19 18 17 16 15 13 11 8 7 5 4 3 3 2 2 2 2 3 3 3 3 3 4 4 4 5 7 8 8 9 9 10 11 12 12 12 12
12 13 16 18 18 19 19 17 16 15 14 13 11 9 7 5 4 3 3 2 2 2 3 3 3 3 3 4 4 4 4 5 6 7 8 9 9 9 11 11 12 13 12
11 13 16 18 19 20 20 18 17 15 15 13 11 9 7 6 4 4 3 2 2 2 2 3 3 3 3 4 4 4 4 5 6 6 7 8 8 9 9 11 12 12 13
11 13 15 17 18 19 19 18 17 15 15 14 11 9 8 7 5 4 3 2 2 2 2 2 2 2 3 3 3 4 4 4 4 5 6 6 8 8 9 9 11 12 13
11 13 15 17 18 19 19 18 17 16 14 13 11 9 8 7 6 5 4 3 2 2 2 1 1 2 2 2 3 3 3 3 3 4 5 6 7 8 9 9 10 11 13
10 13 15 16 17 19 19 18 17 15 15 13 11 10 8 7 6 5 4 3 3 2 2 1 1 1 1 1 1 2 2 3 3 3 4 5 6 7 7 7 8 10 11
10 12 14 16 17 17 18 18 17 16 14 13 11 10 9 7 7 6 5 4 3 2 2 2 1 1 0 0 0 1 1 2 2 3 4 4 5 6 7 7 7 8 9
8 11 13 15 17 17 17 18 17 16 14 13 11 10 10 8 7 7 6 5 4 3 2 2 1 1 1 1 0 0 0 1 1 2 3 4 4 5 5 6 7 8 9
7 10 13 15 16 16 17 17 16 16 15 14 12 11 10 10 9 8 7 6 5 4 3 3 2 1 1 1 1 1 0 0 0 0 1 2 3 4 4 5 5 6 7
7 9 11 14 15 15 17 17 16 16 16 13 12 11 11 11 10 9 8 7 6 4 4 3 2 2 1 1 1 1 1 1 1 1 1 1 1 2 3 4 5 5 6
6 8 11 13 15 15 16 16 16 16 15 14 12 11 12 11 11 10 9 8 7 5 4 4 3 2 2 1 0 0 1 1 1 1 1 1 1 1 2 3 4 5 6
5 6 10 12 13 15 15 15 15 15 15 15 13 13 13 12 12 12 10 9 8 7 6 5 5 4 3 2 2 2 2 2 2 2 2 2 2 3 3 3 4 5 6
5 6 9 11 13 14 14 14 14 15 15 15 14 14 13 13 13 13 12 11 9 8 7 6 6 5 5 4 4 4 4 4 4 4 4 4 4 5 5 6 6 6 7
5 6 8 11 13 14 15 15 14 15 16 15 14 14 13 13 13 14 13 12 11 10 9 8 8 8 7 6 6 6 6 6 6 6 6 7 7 7 7 8 8 9 9
Wind_Direction
198 191 190 186 182 184 188 190 187 180 167 156 147 137 125 114 99 86 77 68 63 62 62 63 65 66 70 73 78 84 92 98 105 116 126 130 133 134 136 132 126 122 117
206 199 197 191 189 190 195 199 196 189 177 165 155 145 134 121 105 87 74 65 60 59 61 63 67 69 77 81 86 93 103 109 111 118 130 133 137 139 139 134 129 127 122
212 206 203 197 196 196 200 203 203 196 187 177 165 151 138 123 104 86 70 62 57 55 57 63 69 74 86 96 101 107 115 126 124 128 134 141 142 145 144 141 139 136 133
217 210 207 203 202 202 203 206 206 202 197 187 176 163 146 130 112 86 68 62 57 55 58 64 68 73 87 106 116 125 133 140 143 140 144 148 150 148 146 152 152 151 147
224 218 212 209 208 207 207 207 208 208 205 195 182 174 163 151 128 92 70 63 56 53 59 61 62 73 91 115 135 146 149 150 152 151 150 156 163 158 154 158 159 160 161
226 222 216 213 209 209 210 208 207 208 208 202 192 186 180 174 159 117 74 58 49 39 49 66 73 86 110 137 152 161 164 162 159 160 164 168 175 172 168 167 166 166 167
227 220 216 214 210 209 210 208 207 207 208 206 201 198 194 193 188 164 84 55 42 44 62 73 89 131 149 165 174 177 177 182 177 177 178 181 184 182 178 173 172 172 172
230 220 215 210 206 207 210 208 206 207 209 209 208 206 207 207 219 205 149 343 346 1 18 21 42 174 183 191 194 190 187 189 188 189 193 194 193 193 189 184 184 181 177
234 224 217 210 207 208 209 208 207 208 211 211 211 211 213 216 222 227 268 295 306 312 309 301 285 209 200 204 207 208 201 201 200 201 206 207 203 199 195 190 189 189 187
232 226 220 212 209 210 210 209 208 209 212 215 215 215 216 218 224 241 276 273 278 281 276 275 263 230 218 218 215 214 214 211 207 207 211 213 209 203 201 198 195 195 195
232 224 221 213 212 212 212 211 211 212 214 219 219 218 220 224 232 252 270 263 262 255 254 263 261 245 229 223 223 220 217 219 216 216 217 216 211 208 207 206 204 203 204
234 224 218 212 213 213 212 213 215 216 216 218 219 219 223 230 237 250 261 256 242 235 241 254 257 254 242 237 236 231 226 225 221 221 223 223 218 216 214 211 210 210 210
235 225 215 211 212 212 212 215 219 220 217 218 218 219 224 231 235 241 249 237 223 225 237 247 256 258 249 243 240 233 230 228 228 227 229 228 227 225 221 215 213 212 213
235 222 215 210 212 211 213 217 221 221 218 220 220 222 225 230 234 235 236 232 227 233 244 254 260 260 252 246 242 238 235 233 234 234 233 232 232 229 223 219 217 217 217
232 223 215 212 214 213 214 215 218 220 219 220 220 225 226 228 227 225 224 219 226 230 240 252 257 258 253 248 245 243 246 244 243 239 234 236 235 233 228 224 221 222 222
229 222 215 211 210 210 212 213 213 216 218 221 222 226 226 221 214 214 208 207 210 210 221 237 243 248 251 253 254 251 251 252 248 242 236 236 234 234 232 232 230 227 224
223 220 218 211 210 210 210 210 213 216 219 221 221 223 220 213 207 201 196 195 191 198 211 220 228 237 245 246 255 254 255 257 253 245 242 241 238 236 238 240 233 232 230
223 217 215 214 209 208 208 210 214 218 221 219 215 214 212 206 198 196 193 190 185 186 193 182 179 198 205 232 252 249 249 253 261 252 248 248 246 244 245 245 238 236 237
227 217 214 215 211 211 213 214 217 221 218 214 212 210 209 206 204 201 194 187 182 178 176 158 147 142 148 175 226 233 241 250 258 251 248 249 251 249 246 246 243 238 239
238 223 218 215 216 216 214 214 218 217 211 209 211 210 210 211 208 204 195 188 186 181 173 158 145 131 123 116 103 160 243 247 253 243 238 242 250 252 247 244 241 240 241
250 230 222 215 216 217 214 215 217 213 209 207 208 210 209 209 205 202 196 193 189 186 182 170 153 138 129 109 95 81 57 66 13 264 251 246 251 250 247 245 243 246 241
263 238 224 216 215 217 215 215 212 207 204 204 207 209 207 206 204 201 197 196 194 195 195 187 176 165 158 145 96 47 56 68 59 25 344 296 264 257 258 260 253 251 247
272 236 220 215 216 216 216 213 208 208 209 209 211 209 207 207 207 204 201 202 203 205 204 200 196 196 202 204 184 2 7 19 25 24 360 333 299 287 288 278 269 265 262
269 234 213 212 214 215 213 210 210 212 210 212 212 209 208 209 209 208 208 210 213 215 216 217 219 224 226 231 243 265 291 315 326 334 322 310 302 298 298 296 291 283 280
269 241 219 214 213 217 214 215 215 213 212 210 209 208 210 212 215 215 215 217 221 225 225 227 231 235 237 244 255 262 273 284 292 301 303 301 300 297 293 289 288 286 284
279 246 226 217 212 213 213 216 217 216 213 211 211 212 215 219 222 222 221 223 227 231 232 234 238 241 244 248 257 264 270 276 282 286 291 291 290 291 290 288 286 283 282
Height
5884 5885 5886 5887 5888 5888 5889 5890 5891 5892 5892 5892 5893 5893 5894 5894 5894 5894 5895 5895 5895 5895 5894 5894 5894 5894 5893 5893 5893 5893 5892 5892 5892 5892 5892 5892 5892 5892 5892 5892 5893 5893 5893
5883 5884 5884 5886 5887 5888 5889 5890 5891 5891 5892 5892 5892 5893 5893 5894 5894 5894 5894 5894 5894 5894 5894 5894 5894 5893 5893 5893 5893 5893 5892 5892 5892 5892 5892 5892 5892 5893 5893 5893 5894 5894 5894
5881 5882 5883 5884 5886 5887 5888 5890 5890 5891 5891 5891 5892 5892 5893 5893 5894 5894 5894 5894 5894 5894 5894 5894 5893 5893 5893 5893 5893 5892 5892 5892 5892 5892 5892 5892 5892 5893 5893 5894 5895 5895 5896
5879 5880 5881 5882 5884 5886 5887 5888 5889 5890 5890 5891 5891 5892 5892 5893 5893 5894 5894 5894 5894 5893 5893 5893 5893 5892 5892 5892 5892 5892 5892 5892 5892 5892 5892 5892 5893 5893 5894 5895 5895 5896 5896
5877 5878 5879 5880 5882 5884 5885 5887 5888 5889 5890 5890 5891 5891 5892 5892 5893 5893 5893 5893 5893 5893 5893 5892 5892 5892 5891 5891 5891 5891 5892 5892 5892 5892 5892 5892 5893 5894 5894 5895 5896 5896 5897
5875 5875 5876 5878 5880 5881 5883 5885 5887 5888 5889 5889 5890 5891 5891 5892 5892 5892 5893 5892 5892 5892 5892 5891 5891 5891 5891 5891 5891 5891 5891 5891 5892 5892 5892 5893 5893 5894 5894 5895 5896 5897 5897
5872 5873 5874 5875 5877 5880 5881 5883 5885 5886 5888 5889 5889 5890 5891 5891 5891 5892 5892 5891 5891 5891 5891 5890 5890 5890 5890 5890 5890 5890 5891 5891 5891 5892 5892 5892 5893 5894 5894 5895 5896 5897 5898
5869 5870 5871 5873 5875 5877 5879 5881 5883 5885 5886 5887 5888 5889 5890 5890 5891 5891 5891 5890 5890 5890 5890 5890 5889 5889 5889 5889 5889 5889 5890 5890 5891 5891 5891 5892 5892 5893 5894 5895 5896 5897 5898
5866 5867 5868 5870 5873 5875 5877 5879 5881 5883 5885 5886 5887 5888 5889 5889 5890 5890 5890 5889 5889 5889 5889 5889 5888 5888 5888 5888 5888 5889 5889 5889 5890 5890 5891 5891 5892 5892 5893 5894 5895 5896 5897
5864 5865 5867 5868 5870 5873 5875 5877 5879 5881 5883 5884 5885 5886 5887 5888 5888 5888 5888 5888 5888 5888 5888 5887 5887 5887 5887 5887 5887 5888 5888 5888 5889 5889 5890 5890 5891 5891 5892 5893 5894 5895 5896
5862 5863 5864 5866 5868 5870 5873 5875 5877 5879 5881 5883 5884 5885 5886 5887 5887 5887 5887 5887 5887 5887 5887 5886 5886 5886 5886 5886 5887 5887 5887 5887 5888 5888 5889 5889 5890 5891 5891 5892 5893 5894 5896
5860 5861 5862 5864 5866 5868 5871 5873 5875 5877 5879 5881 5882 5883 5884 5885 5885 5885 5886 5886 5886 5886 5886 5886 5885 5885 5885 5885 5885 5885 5886 5886 5886 5887 5888 5888 5889 5890 5890 5891 5892 5893 5895
5857 5858 5860 5862 5864 5866 5869 5871 5873 5875 5877 5879 5880 5882 5883 5883 5884 5884 5884 5884 5885 5885 5885 5884 5884 5884 5884 5884 5884 5884 5884 5885 5885 5886 5886 5887 5888 5888 5889 5890 5891 5892 5893
5854 5856 5857 5860 5862 5864 5867 5869 5871 5873 5876 5877 5879 5880 5881 5882 5883 5883 5884 5884 5884 5884 5884 5883 5883 5883 5883 5883 5883 5883 5883 5883 5884 5884 5885 5885 5886 5886 5887 5888 5889 5890 5892
5852 5853 5855 5857 5859 5862 5864 5867 5870 5872 5874 5876 5878 5879 5880 5881 5882 5882 5883 5883 5883 5883 5883 5883 5882 5882 5882 5882 5882 5882 5882 5882 5883 5883 5883 5884 5884 5885 5885 5886 5887 5888 5889
5850 5851 5853 5855 5857 5860 5863 5865 5868 5870 5872 5875 5876 5878 5879 5880 5880 5881 5882 5882 5882 5882 5882 5882 5882 5882 5881 5881 5881 5881 5882 5882 5882 5882 5882 5882 5883 5883 5884 5885 5886 5886 5887
5848 5849 5851 5853 5855 5858 5861 5864 5866 5869 5871 5873 5875 5876 5877 5878 5879 5880 5881 5882 5882 5882 5882 5882 5882 5881 5881 5881 5881 5881 5881 5881 5881 5881 5881 5881 5881 5882 5882 5883 5884 5885 5886
5845 5847 5849 5851 5854 5856 5859 5862 5864 5867 5869 5871 5873 5875 5876 5877 5878 5879 5880 5881 5881 5882 5882 5882 5881 5881 5881 5881 5881 5881 5881 5880 5880 5880 5880 5880 5880 5881 5881 5882 5882 5883 5884
5844 5845 5847 5850 5852 5855 5857 5860 5863 5865 5867 5870 5872 5873 5875 5876 5877 5879 5880 5880 5881 5881 5882 5881 5881 5881 5881 5881 5881 5881 5880 5880 5880 5880 5880 5880 5880 5880 5880 5880 5881 5882 5883
5843 5844 5846 5848 5851 5853 5856 5859 5861 5863 5866 5868 5870 5872 5874 5875 5876 5878 5879 5880 5881 5881 5882 5881 5881 5881 5881 5881 5881 5881 5881 5880 5880 5880 5879 5879 5879 5879 5879 5879 5879 5880 5881
5842 5843 5845 5846 5849 5851 5854 5857 5859 5861 5864 5867 5869 5871 5872 5874 5875 5877 5878 5879 5880 5881 5881 5882 5882 5881 5881 5882 5882 5881 5881 5880 5880 5879 5879 5879 5879 5879 5879 5878 5879 5879 5879
5841 5841 5842 5844 5847 5850 5852 5855 5857 5860 5862 5865 5867 5869 5871 5873 5874 5876 5877 5879 5880 5881 5881 5882 5882 5882 5882 5882 5882 5882 5881 5881 5880 5880 5879 5879 5879 5878 5878 5878 5878 5878 5878
5839 5839 5841 5843 5845 5848 5850 5853 5855 5858 5861 5863 5865 5867 5870 5871 5873 5875 5876 5878 5879 5880 5881 5881 5882 5882 5882 5882 5882 5882 5882 5881 5881 5880 5880 5879 5879 5879 5878 5878 5878 5877 5878
5838 5838 5839 5842 5844 5846 5848 5851 5853 5856 5859 5861 5863 5866 5868 5870 5872 5874 5875 5877 5878 5879 5880 5881 5881 5881 5882 5882 5882 5882 5882 5881 5881 5881 5880 5880 5879 5879 5878 5878 5877 5877 5877
5837 5837 5838 5840 5842 5844 5846 5849 5851 5854 5857 5859 5862 5864 5866 5868 5870 5872 5874 5876 5877 5878 5879 5880 5880 5881 5881 5881 5881 5881 5881 5881 5881 5880 5880 5880 5879 5878 5878 5877 5877 5877 5876
5836 5836 5837 5838 5840 5842 5845 5847 5849 5852 5855 5858 5860 5862 5864 5866 5868 5870 5872 5874 5875 5876 5877 5878 5879 5879 5880 5880 5880 5880 5880 5880 5880 5880 5879 5879 5878 5878 5877 5877 5876 5875 5875